Location: Chacón
(10.5789°N, 66.9317°W)
Time: 13:39:02
(UTC+00:00)

Cosmos 1339 Rocket - Pass Details

Date: 23 August 2024
Orbit: 941 x 1006 km, 82.9° (Epoch: 17 September)

Event Time Altitude Azimuth Distance (km) Brightness Sun altitude
Rises 08:59:43 0° 152° (SSE) 3,684 7.7 -19.6°
Reaches altitude 10° 09:02:59 10° 135° (SE) 2,725 7.2 -18.8°
Maximum altitude 09:07:18 20° 91° (E) 2,086 7.2 -17.8°
Drops below altitude 10° 09:11:34 10° 46° (NE) 2,692 7.8 -16.8°
Sets 09:14:45 0° 30° (NNE) 3,627 8.2 -16.0°
